Meteo pe oră la Bolshie Izori

Astăzi, 12 Mai, Miercuri

Timp Temperatura Precipitaţii Vânt Presiune Umiditate
00:00 +10°C° 0 mm 2 m/s 756 mmHg 81%
01:00 +10°C° 0 mm 2 m/s 756 mmHg 83%
02:00 +10°C° 0 mm 2 m/s 756 mmHg 86%
03:00 +10°C° 0 mm 2 m/s 756 mmHg 88%
04:00 +10°C° 0 mm 2 m/s 756 mmHg 90%
05:00 +12°C° 0 mm 2 m/s 756 mmHg 92%
06:00 +14°C° 0 mm 2 m/s 756 mmHg 83%
07:00 +16°C° 0 mm 3 m/s 756 mmHg 75%
08:00 +18°C° 0 mm 3 m/s 756 mmHg 67%
09:00 +19°C° 0 mm 4 m/s 756 mmHg 61%
10:00 +20°C° 0 mm 4 m/s 756 mmHg 54%
11:00 +21°C° 0 mm 4 m/s 756 mmHg 48%
12:00 +22°C° 0 mm 4 m/s 755 mmHg 45%
13:00 +22°C° 0 mm 4 m/s 755 mmHg 41%
14:00 +22°C° 0 mm 4 m/s 755 mmHg 38%
15:00 +22°C° 0 mm 3 m/s 754 mmHg 42%
16:00 +23°C° 0 mm 2 m/s 754 mmHg 46%
17:00 +23°C° 0 mm 2 m/s 753 mmHg 50%
18:00 +20°C° 0.5 mm 2 m/s 753 mmHg 62%
19:00 +18°C° 0.5 mm 2 m/s 752 mmHg 75%
20:00 +15°C° 0.5 mm 2 m/s 752 mmHg 87%
21:00 +14°C° 0.8 mm 3 m/s 751 mmHg 90%
22:00 +14°C° 0.8 mm 3 m/s 750 mmHg 92%
23:00 +14°C° 0.8 mm 3 m/s 750 mmHg 95%

Mâine, 13 Mai, Joi

Timp Temperatura Precipitaţii Vânt Presiune Umiditate
00:00 +13°C° 0.2 mm 4 m/s 750 mmHg 93%
01:00 +12°C° 0.2 mm 4 m/s 750 mmHg 92%
02:00 +10°C° 0.2 mm 5 m/s 750 mmHg 91%
03:00 +11°C° 0 mm 4 m/s 750 mmHg 90%
04:00 +10°C° 0 mm 4 m/s 750 mmHg 89%
05:00 +9°C° 0 mm 3 m/s 750 mmHg 88%
06:00 +10°C° 0 mm 4 m/s 750 mmHg 82%
07:00 +11°C° 0 mm 4 m/s 750 mmHg 75%
08:00 +13°C° 0 mm 5 m/s 750 mmHg 69%
09:00 +13°C° 0.1 mm 5 m/s 750 mmHg 70%
10:00 +13°C° 0.1 mm 5 m/s 750 mmHg 71%
11:00 +13°C° 0.1 mm 5 m/s 750 mmHg 71%
12:00 +14°C° 0.1 mm 5 m/s 749 mmHg 65%
13:00 +15°C° 0.1 mm 5 m/s 749 mmHg 59%
14:00 +16°C° 0.1 mm 5 m/s 749 mmHg 54%
15:00 +17°C° 0.1 mm 4 m/s 748 mmHg 57%
16:00 +16°C° 0.1 mm 3 m/s 748 mmHg 61%
17:00 +16°C° 0.1 mm 3 m/s 747 mmHg 65%
18:00 +15°C° 0.2 mm 2 m/s 747 mmHg 73%
19:00 +13°C° 0.2 mm 2 m/s 747 mmHg 81%
20:00 +12°C° 0.2 mm 2 m/s 747 mmHg 89%
21:00 +10°C° 0 mm 2 m/s 747 mmHg 90%
22:00 +10°C° 0 mm 2 m/s 747 mmHg 92%
23:00 +9°C° 0 mm 2 m/s 747 mmHg 93%

Poimâine, 14 Mai, Vineri

Timp Temperatura Precipitaţii Vânt Presiune Umiditate
00:00 +9°C° 0 mm 2 m/s 747 mmHg 94%
01:00 +8°C° 0 mm 2 m/s 748 mmHg 95%
02:00 +7°C° 0 mm 2 m/s 748 mmHg 96%
03:00 +7°C° 0 mm 2 m/s 748 mmHg 95%
04:00 +7°C° 0 mm 2 m/s 748 mmHg 94%
05:00 +7°C° 0 mm 2 m/s 748 mmHg 93%
06:00 +8°C° 0 mm 3 m/s 748 mmHg 89%
07:00 +9°C° 0 mm 3 m/s 748 mmHg 86%
08:00 +10°C° 0 mm 3 m/s 748 mmHg 82%
09:00 +13°C° 0 mm 3 m/s 748 mmHg 73%
10:00 +15°C° 0 mm 4 m/s 748 mmHg 64%
11:00 +18°C° 0 mm 4 m/s 748 mmHg 55%
12:00 +19°C° 0 mm 4 m/s 748 mmHg 54%
13:00 +19°C° 0 mm 4 m/s 748 mmHg 53%
14:00 +20°C° 0 mm 4 m/s 748 mmHg 52%
15:00 +20°C° 0 mm 4 m/s 747 mmHg 54%
16:00 +20°C° 0 mm 4 m/s 747 mmHg 56%
17:00 +20°C° 0 mm 3 m/s 746 mmHg 58%
18:00 +18°C° 0 mm 3 m/s 746 mmHg 65%
19:00 +17°C° 0 mm 3 m/s 746 mmHg 72%
20:00 +14°C° 0 mm 3 m/s 745 mmHg 80%
21:00 +14°C° 0.6 mm 3 m/s 745 mmHg 84%
22:00 +14°C° 0.6 mm 3 m/s 745 mmHg 89%
23:00 +13°C° 0.6 mm 3 m/s 744 mmHg 94%

15 Mai, Sâmbătă

Timp Temperatura Precipitaţii Vânt Presiune Umiditate
00:00 +13°C° 0.3 mm 3 m/s 744 mmHg 95%
01:00 +14°C° 0.3 mm 2 m/s 744 mmHg 96%
02:00 +13°C° 0.3 mm 2 m/s 744 mmHg 98%
03:00 +13°C° 0 mm 2 m/s 744 mmHg 98%
04:00 +13°C° 0 mm 2 m/s 744 mmHg 98%
05:00 +12°C° 0 mm 2 m/s 744 mmHg 98%
06:00 +14°C° 0 mm 2 m/s 744 mmHg 93%
07:00 +15°C° 0 mm 2 m/s 744 mmHg 88%
08:00 +16°C° 0 mm 2 m/s 744 mmHg 83%
09:00 +18°C° 0 mm 2 m/s 744 mmHg 74%
10:00 +19°C° 0 mm 2 m/s 744 mmHg 65%
11:00 +21°C° 0 mm 2 m/s 744 mmHg 56%
12:00 +21°C° 0.2 mm 2 m/s 743 mmHg 56%
13:00 +21°C° 0.2 mm 2 m/s 743 mmHg 57%
14:00 +21°C° 0.2 mm 2 m/s 743 mmHg 57%
15:00 +21°C° 0.4 mm 2 m/s 743 mmHg 63%
16:00 +20°C° 0.4 mm 2 m/s 743 mmHg 68%
17:00 +19°C° 0.4 mm 2 m/s 742 mmHg 73%
18:00 +18°C° 1 mm 2 m/s 743 mmHg 80%
19:00 +16°C° 1 mm 2 m/s 743 mmHg 87%
20:00 +14°C° 1 mm 2 m/s 743 mmHg 93%
21:00 +14°C° 0.1 mm 2 m/s 743 mmHg 94%
22:00 +13°C° 0.1 mm 2 m/s 743 mmHg 96%
23:00 +12°C° 0.1 mm 2 m/s 744 mmHg 97%

16 Mai, Duminică

Timp Temperatura Precipitaţii Vânt Presiune Umiditate
00:00 +12°C° 0 mm 2 m/s 744 mmHg 97%
01:00 +10°C° 0 mm 2 m/s 745 mmHg 98%
02:00 +10°C° 0 mm 2 m/s 745 mmHg 98%
03:00 +10°C° 0 mm 2 m/s 745 mmHg 98%
04:00 +10°C° 0 mm 2 m/s 745 mmHg 97%
05:00 +10°C° 0 mm 2 m/s 746 mmHg 97%
06:00 +10°C° 0 mm 3 m/s 746 mmHg 97%
07:00 +11°C° 0 mm 3 m/s 747 mmHg 96%
08:00 +11°C° 0 mm 3 m/s 747 mmHg 96%
09:00 +13°C° 0 mm 3 m/s 748 mmHg 85%
10:00 +14°C° 0 mm 3 m/s 748 mmHg 74%
11:00 +16°C° 0 mm 3 m/s 748 mmHg 64%
12:00 +17°C° 0 mm 3 m/s 749 mmHg 61%
13:00 +18°C° 0 mm 3 m/s 749 mmHg 59%
14:00 +18°C° 0 mm 3 m/s 749 mmHg 57%
15:00 +18°C° 0 mm 2 m/s 749 mmHg 58%
16:00 +18°C° 0 mm 2 m/s 749 mmHg 59%
17:00 +19°C° 0 mm 1 m/s 749 mmHg 60%
18:00 +16°C° 0 mm 1 m/s 750 mmHg 68%
19:00 +15°C° 0 mm 1 m/s 750 mmHg 75%
20:00 +12°C° 0 mm 0 m/s 750 mmHg 83%
21:00 +13°C° 0 mm 1 m/s 750 mmHg 84%
22:00 +12°C° 0 mm 1 m/s 751 mmHg 86%
23:00 +12°C° 0 mm 1 m/s 751 mmHg 88%

17 Mai, Luni

Timp Temperatura Precipitaţii Vânt Presiune Umiditate
00:00 +11°C° 0 mm 1 m/s 751 mmHg 89%
01:00 +10°C° 0 mm 2 m/s 751 mmHg 91%
02:00 +9°C° 0 mm 2 m/s 751 mmHg 93%
03:00 +10°C° 0 mm 2 m/s 751 mmHg 91%
04:00 +10°C° 0 mm 2 m/s 751 mmHg 90%
05:00 +10°C° 0 mm 2 m/s 751 mmHg 88%
06:00 +13°C° 0 mm 3 m/s 751 mmHg 81%
07:00 +16°C° 0 mm 3 m/s 751 mmHg 73%
08:00 +18°C° 0 mm 4 m/s 751 mmHg 65%
09:00 +19°C° 0 mm 4 m/s 750 mmHg 60%
10:00 +21°C° 0 mm 5 m/s 750 mmHg 54%
11:00 +22°C° 0 mm 5 m/s 749 mmHg 49%
12:00 +23°C° 0 mm 5 m/s 749 mmHg 49%
13:00 +25°C° 0 mm 5 m/s 748 mmHg 50%
14:00 +26°C° 0 mm 5 m/s 748 mmHg 50%
15:00 +26°C° 0 mm 5 m/s 748 mmHg 54%
16:00 +24°C° 0 mm 6 m/s 747 mmHg 57%
17:00 +24°C° 0 mm 6 m/s 747 mmHg 61%
18:00 +23°C° 0.2 mm 5 m/s 747 mmHg 68%
19:00 +21°C° 0.2 mm 5 m/s 747 mmHg 76%
20:00 +20°C° 0.2 mm 5 m/s 746 mmHg 83%
21:00 +19°C° 0.1 mm 5 m/s 746 mmHg 85%
22:00 +19°C° 0.1 mm 5 m/s 746 mmHg 87%
23:00 +19°C° 0.1 mm 5 m/s 746 mmHg 89%
Arată mai mult

Formular de consimțământ

Meteoprog și furnizorii noștri de servicii pot stoca și accesa date personale, precum cookies, identificatori de dispozitiv sau alte tehnologii similare pe dispozitivul dumneavoastră și procesa astfel de date pentru a personaliza conținutul și reclamele, dar și pentru a oferi caracteristici de social media și pentru a analiza traficul.

  • Stocarea și/sau accesarea informațiilor pe dispozitivul dumneavoastră

    Cookies, identificatori de dispozitiv sau alte informații pot fi stocate sau accesate pe dispozitiv în scopurile indicate mai sus.

  • Reclame și conținut personalizat, evaluarea reclamelor și a conținutului, informații despre audiențe și dezvoltarea produselor

    Reclamele și conținutul pot fi personalizate pe baza unui profil. Pot fi adăugate date suplimentare pentru a personaliza mai bine reclamele și conținutul. Performanța reclamelor și conținutului poate fi măsurată. Pot fi obținute informații despre utilizatorii care au văzut reclamele și conținutul. Aceste date pot fi utilizate pentru a dezvolta sau îmbunătăți experiența utilizatorilor, sistemele și software-ul.

Dând clic pe ‘Sunt de acord’, permiteți utilizarea cookie-urilor menționate, a identificatorilor de dispozitiv, balizelor web sau altor tehnologii similare. Setările pot fi modificate din browser-ul dispozitivului dumneavoastră.

În anumite scopuri, interesele legitime pot prima asupra consimțământului. Puteți citi mai multe informații în acest sens în Politica privind Confidențialitatea Datelor și Cookie.